Location: Poughquag
(41.6090°N, 73.6820°W)
Time: 15:47:56
(UTC-04:00)

NOAA 18 - Pass Details

Date: 17 September 2024
Orbit: 837 x 859 km, 98.9° (Epoch: 12 October)

Event Time Altitude Azimuth Distance (km) Brightness Sun altitude
Exits shadow 22:31:02 21° 9° (N) 1,837 7.2 -36.6°
Drops below altitude 10° 22:32:53 10° 360° (N) 2,484 8.1 -36.9°
Sets 22:35:21 0° 353° (N) 3,420 9.0 -37.2°
